Tracking 22879 objects as of 21-Apr-2021
HD Live streaming from Space Station
objects crossing your sky now

STARLINK-2281

Track STARLINK-2281 now!
10-day predictions
STARLINK-2281 is classified as:


NORAD ID: 48015
Int'l Code: 2021-024AQ
Perigee: 356.2 km
Apogee: 357.6 km
Inclination: 53.0 °
Period: 91.5 minutes
Semi major axis: 6727 km
RCS: Unknown
Launch date: March 24, 2021
Source: United States (US)
Launch site: AIR FORCE EASTERN TEST RANGE (AFETR)
aabbcc
Your satellite tracking list
Your tracking list is empty




NASA's NSSDC Master Catalog

Two Line Element Set (TLE):
1 48015U 21024AQ  21110.91667824  .00040353  00000-0  29054-3 0  9993
2 48015  53.0488  67.2562 0001104  80.6053 184.7665 15.73197344  1769
Source of the keplerian elements: AFSPC